DMSP 5D-2 F11 DEB, 28343

Orbit data source: Space-Track

DMSP 5D-2 F11 DEB, 28343 is space debris in SSO originally from a launch on Thu, 28 Nov 1991 UTC launched from the Air Force Western Test Range (AFWTR). Debris objects in space refer to the collection of defunct objects orbiting the Earth. Examples of debris include non-operational satellites, rocket bodies, and fragments generated from explosions, collisions, or faulty payload assembly.

Loading next visibility...
Identifier
28343, 1991-082BG
Orbit
SSO
Country
Flag of USUS
Related business
Manufacturer
Unknown
Mission
Spacecraft
Bus & Motor
Unknown
Mass
Unknown
Launch date (UTC)
1991-11-28 (35 years ago)
Launch vehicle
Unknown
Launch site
Air Force Western Test Range (AFWTR)
Object type
Payload
Rocket body
Debris
Shape & HBR
Unknown shape, 0.1 m
Radar Cross Section
Medium (>0.1 m² and <1 m²)

Expand to show TLE details & history
Last TLE update: 2 days ago

TLE from 2 days ago
0 DMSP 5D-2 F11 DEB
1 28343U 91082BG  26207.07664902  .00005510  00000-0  17780-2 0  9997
2 28343  98.8869 302.3909 0061356  80.7530 280.0589 14.38502533141305
Epoch: 2026-07-26T01:50Z
TLE epoch observation values (Epoch: 2026-07-26T01:50:22.475Z)
Latitude
Longitude
-28.98251°
Altitude
758.991 km
Speed
7.479 km/s
True Right ascension
20h 09m 33s
True Declination
0° 00' 00"
Sunlit
Object was in full shadow at epoch
Visualization orbit readout
Latitude
Unknown
Longitude
Unknown
Altitude
Unknown
Speed
Unknown
Apparent Right ascension
Unknown
Apparent Declination
Unknown
Sunlit
N/A
Visualization observer readout
Local Sidereal Time
18:05:48
Azimuth
Unknown
Elevation
Unknown
Doppler factor
Unknown
Orbital elements
Apogee altitude
804.393 km
Perigee altitude
716.792 km
Semi-major axis
7,138.73 km
Eccentricity
0.00614
Inclination
98.8869°
RAAN
302.3909°
Arg. of periapsis
80.753°
True anomaly
279.36571°
Mean anomaly
280.0589°
Eccentric anomaly
279.71239°
Mean motion
3.59842 °/min
Orbital period
100.04 mins
BSTAR
0.001778
Loading maneuver chart data...
Computing Atmospheric mass density...

Documentation

Showing up to 5 results
|